This demonstration page uses our WeatherBlox Daily Observations layout. Learn more.

Left ArrowRight Arrow

36.17497, -115.13722

Hourly Observations for May 20, 2016

Temp ( °F °C ) Dew Point ( °F °C ) Humidity (%) Winds ( mph kmh ) Pressure ( in mb ) Visibility ( mi km ) Precip ( " mm )
12:53 am 00:53 Clear 78 25.6 35 1.7 21 21 S 20 31 29.55 1001 10 16 N/A
1:53 am 01:53 Clear 76 24.4 30 -1.1 18 18 S 15 24 29.54 1000 10 16 N/A
2:53 am 02:53 Clear 75 23.9 24 -4.4 15 15 S 18 30 29.54 1000 10 16 N/A
3:53 am 03:53 Clear 74 23.3 27 -2.8 17 17 SSW 16 26 29.53 1000 10 16 N/A
4:53 am 04:53 Clear 74 23.3 26 -3.3 17 17 SSW 23 37 29.52 1000 10 16 N/A
5:53 am 05:53 Sunny 73 22.8 25 -3.9 17 17 SSW 22 35 29.53 1000 10 16 N/A
6:53 am 06:53 Sunny 74 23.3 19 -7.2 12 12 SSW 22 35 29.57 1001 10 16 N/A
7:53 am 07:53 Sunny 73 22.8 24 -4.4 16 16 SSW 25 41 29.58 1002 10 16 N/A
8:53 am 08:53 Sunny 75 23.9 22 -5.6 14 14 S 20 31 29.57 1002 10 16 N/A
9:53 am 09:53 Sunny 75 23.9 19 -7.2 12 12 S 25 41 29.60 1002 10 16 N/A
10:53 am 10:53 Sunny 76 24.4 16 -8.9 10 10 SSW 20 31 29.61 1003 10 16 N/A
11:53 am 11:53 Sunny 79 26.1 19 -7.2 10 10 SSW 18 30 29.62 1003 10 16 N/A
12:53 pm 12:53 Sunny 81 27.2 14 -10 8 8 SW 29 46 29.60 1003 10 16 N/A
1:53 pm 13:53 Sunny 81 27.2 20 -6.7 10 10 SW 25 41 29.59 1002 10 16 N/A
2:53 pm 14:53 Sunny 82 27.8 21 -6.1 10 10 SW 23 37 29.58 1002 10 16 N/A
3:53 pm 15:53 Sunny 80 26.7 20 -6.7 10 10 WSW 18 30 29.58 1002 10 16 N/A
4:53 pm 16:53 Sunny 81 27.2 19 -7.2 10 10 SW 18 30 29.57 1001 10 16 N/A
5:53 pm 17:53 Sunny 78 25.6 21 -6.1 12 12 WSW 17 28 29.59 1002 10 16 N/A
6:53 pm 18:53 Sunny 76 24.4 21 -6.1 13 13 WSW 14 22 29.61 1003 10 16 N/A
7:53 pm 19:53 Clear 73 22.8 25 -3.9 17 17 WSW 17 28 29.63 1003 10 16 N/A
8:53 pm 20:53 Clear 72 22.2 26 -3.3 18 18 WSW 21 33 29.65 1004 10 16 N/A
9:53 pm 21:53 Clear 70 21.1 27 -2.8 20 20 WSW 18 30 29.66 1005 10 16 N/A
10:53 pm 22:53 Clear 69 20.6 27 -2.8 21 21 WSW 16 26 29.66 1005 10 16 N/A
11:53 pm 23:53 Clear 67 19.4 31 -0.6 26 26 SW 20 31 29.67 1005 10 16 N/A

Powered by AerisWeather